Theta_e
344 346 347 348 349 348 347 347 347 347 348 348 347 345 344 344 343 342 342 342 341 338 338 338 338 338 338 338 337 337 337 337 338 338 338 338 339 342 341 340 342 338 341
347 346 345 347 348 348 347 347 347 347 348 346 345 344 343 342 340 339 340 340 339 336 336 335 333 333 332 332 331 331 331 333 333 335 336 337 341 341 341 341 343 338 340
346 346 345 346 347 347 347 348 348 348 346 345 344 342 341 339 338 338 338 339 336 334 333 331 330 330 329 329 330 330 331 331 330 330 334 334 338 341 341 341 342 340 339
346 346 346 345 346 347 347 348 348 347 346 345 342 340 339 338 337 337 335 337 334 331 329 328 328 328 328 329 330 330 330 330 329 332 327 331 334 340 338 338 338 338 338
346 346 347 344 344 346 346 346 347 347 346 344 342 339 338 336 335 334 334 334 330 329 329 328 328 328 328 330 330 329 329 330 330 329 328 333 334 339 339 337 338 338 337
345 346 343 342 343 344 345 346 347 346 345 344 343 339 337 335 333 332 331 330 330 331 330 330 328 328 329 330 330 327 328 329 329 326 328 331 334 338 338 337 336 336 336
345 346 344 340 342 344 346 347 346 345 344 343 342 339 336 333 331 330 330 330 331 331 331 330 329 329 329 330 330 328 327 329 322 321 322 325 330 335 337 336 336 335 335
343 345 345 342 342 342 345 345 343 342 342 342 340 337 335 333 331 330 330 330 330 331 331 330 330 330 331 331 330 329 327 325 323 322 321 322 331 333 334 335 335 334 333
345 346 345 345 343 340 341 341 340 340 340 340 338 337 334 333 332 331 332 332 331 331 331 332 331 332 332 331 330 329 328 321 325 323 321 321 328 330 330 331 334 332 331
344 344 344 345 345 345 345 339 339 338 338 338 336 335 334 333 331 331 330 332 332 332 332 332 332 333 333 332 330 329 329 328 325 324 323 323 326 328 330 331 331 331 330
341 342 343 343 343 343 343 342 338 338 337 337 336 334 331 336 335 332 330 331 332 333 333 333 333 333 332 332 330 329 328 324 325 323 324 324 325 327 328 329 332 333 330
336 338 340 341 340 342 338 339 338 334 335 336 337 337 338 338 337 334 333 331 330 330 331 328 328 329 329 327 326 327 323 325 323 323 324 322 324 327 328 327 331 333 334
336 336 338 339 339 341 337 335 333 333 335 337 338 338 338 338 338 336 334 333 334 328 330 328 328 326 327 326 324 324 323 322 321 321 320 320 323 326 328 328 328 329 330
334 336 336 337 339 339 335 332 332 333 335 337 338 339 341 337 336 333 331 331 333 330 327 326 325 325 325 323 323 322 321 319 318 318 320 319 322 324 326 327 327 327 326
330 334 337 338 337 336 334 333 333 335 336 337 338 337 335 333 332 332 331 329 327 325 324 323 322 321 320 319 320 318 317 317 317 317 318 315 316 318 320 321 320 320 320
329 334 336 335 335 333 332 334 334 332 330 330 332 329 327 326 327 330 326 324 323 323 322 320 319 317 317 317 316 316 315 315 314 316 315 317 312 312 313 314 315 315 316
330 334 335 335 334 334 332 329 328 325 324 326 330 329 324 323 324 322 321 321 321 319 318 318 317 317 315 314 314 314 314 314 313 314 315 314 313 310 309 309 310 311 311
329 333 335 334 334 333 328 324 325 324 325 322 321 320 319 318 319 319 319 320 317 317 316 315 314 313 313 312 311 311 311 312 311 314 314 313 312 311 311 307 307 307 307
330 334 334 334 334 332 327 322 320 324 319 319 319 318 317 317 317 319 317 316 316 315 314 313 312 311 309 309 307 307 309 309 309 310 312 311 312 311 310 310 308 307 305
332 334 335 331 331 332 330 324 320 319 320 320 319 317 316 316 315 317 315 314 313 312 311 310 310 310 308 308 306 306 308 307 308 310 310 309 309 308 307 307 306 305 306
332 332 333 331 331 330 327 323 319 319 320 318 316 315 314 314 313 313 312 312 312 310 310 310 308 307 306 307 304 303 303 305 307 307 307 306 306 306 305 304 303 303 302
331 331 331 330 330 328 325 323 323 322 320 315 315 313 312 311 311 310 311 310 310 308 309 309 307 304 304 305 302 300 296 299 302 305 305 304 304 304 302 301 301 301 301
327 327 325 324 323 322 322 321 320 319 316 314 313 313 311 311 311 310 310 310 309 308 306 307 306 304 301 303 302 299 295 293 296 299 301 300 302 300 300 299 299 298 299
320 322 321 320 318 317 316 317 316 315 314 312 313 312 311 311 311 310 309 309 308 307 306 306 304 303 301 298 299 299 299 297 292 290 297 298 297 296 297 296 297 296 297
316 316 316 315 314 315 316 316 314 312 311 311 311 309 310 311 311 309 308 308 307 306 306 305 303 301 300 299 297 296 296 295 294 290 287 291 293 294 295 294 295 296 296
314 315 315 313 312 313 313 312 312 309 308 308 307 305 304 303 303 303 303 306 307 306 305 303 302 301 299 297 296 294 293 291 290 289 288 289 289 291 293 294 294 294 295
Wind_Speed
15 19 14 13 12 12 12 12 14 14 14 13 13 14 14 13 13 12 12 12 12 14 14 14 14 14 14 14 14 13 13 13 12 12 11 8 11 13 11 12 14 12 11
17 18 14 14 14 13 13 13 14 13 13 14 13 12 12 12 12 13 12 12 12 12 12 12 12 13 13 13 13 13 13 12 11 10 9 5 15 12 11 11 11 12 10
17 17 19 14 14 13 13 14 13 13 14 13 12 11 12 13 13 13 12 11 11 10 11 10 11 12 11 11 11 11 11 11 10 7 7 8 12 11 13 13 10 11 9
15 16 18 14 14 13 12 12 12 13 13 12 11 11 12 12 11 11 11 9 9 9 9 9 10 10 9 9 10 10 11 11 9 10 7 9 8 13 12 12 12 10 10
13 15 17 14 13 13 13 11 11 11 11 11 10 10 11 11 11 10 9 8 8 8 8 8 10 9 8 9 10 10 10 9 10 9 10 10 7 11 11 11 11 10 10
13 13 16 13 14 13 12 11 11 10 10 9 9 10 10 9 10 9 7 7 8 8 9 9 9 8 8 8 9 10 8 9 14 9 9 8 10 10 11 11 10 9 8
15 12 15 11 13 12 12 11 10 10 9 8 9 9 9 9 9 8 7 8 8 8 9 9 8 8 8 8 10 11 10 9 10 9 8 8 11 11 10 10 10 11 10
13 12 13 12 12 10 10 10 10 9 9 8 8 7 7 8 7 8 7 7 6 7 7 7 7 7 8 8 9 9 9 10 7 10 8 8 11 11 10 9 9 9 10
13 12 12 12 10 8 8 8 9 9 9 8 5 5 6 6 5 5 5 5 5 5 5 5 5 5 6 7 7 7 6 7 8 6 7 8 12 11 11 10 8 8 9
9 10 10 11 11 10 9 8 9 8 7 5 4 4 4 4 3 3 4 5 5 4 4 4 5 6 7 7 6 8 9 10 9 8 5 8 11 11 10 10 9 8 8
9 9 8 9 8 7 7 9 8 7 5 3 5 4 5 2 2 5 7 3 4 5 5 7 7 8 8 10 2 6 11 7 8 7 6 12 11 11 10 9 8 8 7
9 9 8 7 7 5 5 6 5 5 2 2 2 1 1 3 3 6 3 4 3 4 3 3 4 7 9 7 5 5 6 8 7 6 6 15 11 10 10 9 10 9 7
11 8 8 7 7 7 6 5 4 4 2 3 3 4 3 4 3 3 3 2 2 1 3 3 2 5 7 6 6 6 8 7 5 5 12 12 11 11 11 11 11 12 13
11 10 8 7 7 6 6 4 5 4 3 2 4 4 2 3 5 5 4 3 2 3 4 4 3 5 6 6 6 6 6 6 5 5 11 11 12 14 14 15 15 15 14
9 9 10 8 7 6 5 5 5 4 4 5 4 4 3 4 6 6 4 3 3 3 3 5 5 6 6 6 6 6 6 6 6 5 3 12 12 13 14 15 16 16 16
8 10 10 10 9 8 7 7 7 7 7 5 3 3 6 4 6 7 4 3 4 4 5 6 6 7 6 6 6 6 6 6 7 7 6 6 11 12 13 14 14 15 16
9 11 11 11 12 10 11 10 5 5 4 1 2 3 5 3 4 5 4 3 4 3 5 5 6 5 6 6 7 7 7 7 6 7 7 6 5 12 11 13 13 13 15
8 11 12 10 12 13 9 6 3 5 2 3 3 2 3 3 1 2 2 2 4 4 5 5 5 7 6 7 7 8 8 8 7 8 6 6 5 7 6 12 12 11 14
9 12 12 12 12 12 8 4 4 6 4 4 3 3 3 3 2 2 3 4 4 4 4 5 5 6 7 7 8 9 9 10 10 8 6 6 3 6 6 8 10 9 14
10 11 13 11 13 11 6 6 6 6 6 4 3 4 4 4 3 2 4 5 5 5 5 6 7 8 7 7 10 10 9 10 10 8 6 6 4 7 7 9 10 9 12
11 12 13 13 12 8 8 8 7 6 5 3 5 5 5 5 5 5 3 4 6 6 8 8 8 11 8 7 11 10 11 12 4 7 6 7 8 9 10 10 9 9 10
12 12 11 12 12 9 7 6 4 5 4 5 4 5 5 5 5 4 6 6 7 8 9 7 7 7 8 5 9 11 10 10 9 3 8 9 10 8 12 12 13 12 11
12 13 13 13 11 7 7 6 6 6 5 5 3 3 5 6 7 7 6 6 7 7 8 6 5 7 8 7 6 8 10 10 11 11 9 9 10 9 10 11 11 13 12
12 11 12 10 9 7 3 6 6 5 3 4 2 3 3 5 6 8 8 7 8 7 7 5 4 6 6 7 7 8 7 9 11 11 10 10 12 11 12 10 10 13 14
11 10 9 10 10 9 9 7 6 6 5 4 3 5 6 6 8 9 10 10 9 6 4 4 4 5 6 7 8 8 8 7 8 10 11 11 11 10 9 9 10 11 14
9 9 9 11 12 11 11 11 11 8 7 5 6 6 7 9 9 11 12 10 9 6 5 4 4 6 8 7 6 5 6 7 8 9 10 12 13 12 10 10 9 10 10
Wind_Direction
148 139 146 142 131 130 126 117 111 110 111 110 102 96 92 89 85 83 77 73 68 65 63 58 53 49 49 46 44 42 41 38 32 24 11 18 31 20 34 27 356 29 10
139 144 147 142 137 136 129 118 115 117 113 106 98 97 96 92 87 81 73 70 71 68 66 60 57 53 49 47 40 36 33 31 28 21 349 226 78 30 26 26 22 15 6
145 146 154 140 139 136 129 123 124 120 113 107 108 105 96 90 83 79 75 70 74 69 68 65 61 56 50 50 42 39 36 29 18 350 284 9 58 33 30 25 16 5 352
144 157 147 142 139 137 133 126 123 117 113 113 107 99 93 90 92 88 84 78 80 74 70 65 64 60 52 50 48 37 24 19 355 305 27 13 46 44 36 23 27 23 354
147 160 133 142 145 141 134 130 118 116 114 105 107 106 101 101 101 99 94 88 87 81 73 67 65 59 52 42 36 34 22 8 317 306 29 30 29 51 47 37 40 52 17
154 152 135 144 143 148 137 133 119 113 107 112 114 111 102 100 97 94 89 84 77 77 73 70 69 65 46 39 33 35 24 355 304 25 37 57 43 22 42 45 36 32 23
148 143 150 145 149 147 142 126 118 117 113 110 108 102 100 99 100 95 88 79 69 68 66 62 57 52 40 30 27 24 16 342 359 27 23 36 38 10 36 44 37 27 20
145 148 147 153 152 144 123 122 119 107 97 91 88 96 102 101 96 103 97 92 84 69 64 57 44 34 30 21 19 20 11 344 11 27 21 40 31 12 20 30 40 26 15
138 142 150 157 146 108 111 115 106 99 88 86 89 83 95 92 98 98 96 99 90 68 51 39 37 24 15 12 9 4 0 318 332 14 355 39 18 8 12 15 21 15 4
132 141 148 155 157 153 143 97 90 88 93 94 82 84 89 123 123 132 160 73 40 34 21 5 346 347 352 337 347 347 319 268 352 331 344 43 2 1 6 4 6 4 358
149 148 146 153 142 138 132 107 122 115 106 141 160 105 209 141 152 201 57 2 360 354 344 340 338 332 320 262 227 336 290 357 333 343 330 26 348 338 347 353 343 337 343
148 141 140 140 119 134 122 135 120 116 110 64 62 58 260 358 358 314 306 317 321 345 284 316 314 277 254 346 346 252 349 343 314 327 38 18 356 344 337 338 340 335 326
156 151 146 125 127 167 127 140 134 127 112 99 69 3 9 322 327 277 295 255 321 24 335 321 339 2 356 335 344 334 336 320 347 339 54 19 17 21 15 13 12 1 352
157 154 145 139 156 135 141 141 129 107 113 92 58 13 4 316 330 321 319 320 281 360 336 336 345 352 342 338 338 332 343 336 352 336 80 32 45 46 42 37 34 32 26
150 145 142 142 137 139 136 118 109 107 59 23 26 61 49 4 350 314 322 318 321 322 335 319 331 341 334 323 328 327 335 334 335 338 45 74 49 55 49 42 35 31 31
149 146 141 145 142 138 122 121 97 56 36 16 37 32 16 52 13 311 283 327 310 328 337 326 351 332 326 318 317 321 315 318 324 324 320 106 93 64 55 47 37 28 21
168 146 149 145 139 136 119 95 74 94 54 227 118 106 121 121 208 253 299 308 313 344 327 342 332 308 310 307 299 295 297 301 313 306 301 312 155 118 76 43 28 24 15
169 157 156 154 147 136 127 108 56 25 301 97 99 118 120 171 269 266 246 313 4 360 347 340 337 320 321 314 313 302 303 305 310 286 280 308 331 322 134 50 11 6 6
171 159 156 155 150 139 122 111 130 158 187 123 124 104 124 129 63 348 41 34 349 352 352 336 336 333 318 303 303 303 301 298 299 292 292 288 326 333 335 21 354 320 358
141 152 150 147 157 152 151 152 146 161 148 141 101 83 76 81 61 25 58 23 337 336 330 342 325 325 303 306 305 298 296 299 305 283 294 280 324 332 327 330 331 331 334
140 148 155 159 167 172 172 151 157 152 116 112 92 70 67 59 59 28 10 350 335 334 332 318 312 306 306 329 302 313 298 284 262 295 290 308 317 319 320 330 324 327 325
139 146 152 152 164 169 151 148 141 135 128 105 106 104 87 59 32 9 352 339 340 324 313 304 309 307 299 332 313 310 308 302 283 298 316 299 307 320 320 331 328 326 322
137 143 143 134 131 113 113 136 126 126 142 161 134 120 65 27 1 344 333 330 322 307 308 302 297 302 311 309 335 311 316 318 324 301 288 299 314 317 317 321 318 317 318
119 120 124 120 113 101 139 95 65 40 73 55 80 68 11 11 343 330 319 308 307 305 297 283 294 310 310 314 311 312 303 306 304 301 299 305 310 314 314 317 320 316 319
127 125 122 119 112 104 96 94 98 88 92 78 40 338 319 318 318 320 312 302 296 285 268 273 268 298 304 312 319 318 311 302 296 299 304 302 302 299 307 307 313 297 309
131 127 128 118 107 102 93 85 82 79 56 21 3 336 337 325 324 320 319 305 295 278 243 242 276 310 317 314 316 308 305 312 309 310 301 304 302 301 310 303 295 294 302